| time (UTC) | temp F | wind direction | speed MPH | gust MPH | rain 1hr in | rain 24hr in | rain mn in | humidity % | barometer mb |
| 20260505204233 | 63 | 23 | 1.0 | 4.0 | 0.00 | 0.00 | 0.00 | 71 | 1015.7 |
| 20260505203231 | 62 | 44 | 0.0 | 4.0 | 0.00 | 0.00 | 0.00 | 71 | 1015.8 |
| 20260505202230 | 63 | 61 | 0.0 | 4.0 | 0.00 | 0.00 | 0.00 | 73 | 1015.8 |
| 20260505195227 | 62 | 39 | 0.0 | 5.0 | 0.00 | 0.00 | 0.00 | 72 | 1015.9 |
| 20260505194227 | 62 | 291 | 0.0 | 4.0 | 0.00 | 0.00 | 0.00 | 74 | 1015.9 |
| 20260505193225 | 61 | 286 | 3.0 | 5.0 | 0.00 | 0.00 | 0.00 | 75 | 1016.0 |
| 20260505192224 | 60 | 283 | 0.0 | 3.0 | 0.00 | 0.00 | 0.00 | 75 | 1016.0 |
| 20260505191223 | 60 | 298 | 0.0 | 4.0 | 0.00 | 0.00 | 0.00 | 75 | 1016.0 |
| 20260505185222 | 60 | 296 | 3.0 | 4.0 | 0.00 | 0.00 | 0.00 | 76 | 1015.9 |
| 20260505184221 | 60 | 286 | 4.0 | 4.0 | 0.00 | 0.00 | 0.00 | 76 | 1015.9 |
| 20260505183219 | 59 | 310 | 0.0 | 4.0 | 0.00 | 0.00 | 0.00 | 76 | 1015.9 |
| 20260505182219 | 59 | 316 | 2.0 | 5.0 | 0.00 | 0.00 | 0.00 | 76 | 1015.8 |
| 20260505180217 | 59 | 292 | 1.0 | 7.0 | 0.00 | 0.00 | 0.00 | 77 | 1015.7 |
| 20260505175217 | 59 | 273 | 0.0 | 5.0 | 0.00 | 0.00 | 0.00 | 77 | 1015.7 |
| 20260505172212 | 58 | 247 | 0.0 | 5.0 | 0.00 | 0.00 | 0.00 | 77 | 1015.6 |
| 20260505171211 | 58 | 230 | 2.0 | 7.0 | 0.00 | 0.00 | 0.00 | 78 | 1015.6 |
| 20260505170211 | 58 | 264 | 2.0 | 4.0 | 0.00 | 0.00 | 0.00 | 79 | 1015.5 |
| 20260505165210 | 58 | 264 | 1.0 | 4.0 | 0.00 | 0.00 | 0.00 | 78 | 1015.5 |
| 20260505164209 | 58 | 264 | 0.0 | 3.0 | 0.00 | 0.00 | 0.00 | 79 | 1015.5 |
| 20260505163208 | 57 | 261 | 0.0 | 4.0 | 0.00 | 0.00 | 0.00 | 79 | 1015.6 |
| 20260505162207 | 57 | 277 | 2.0 | 4.0 | 0.00 | 0.00 | 0.00 | 79 | 1015.6 |
| 20260505161206 | 57 | 277 | 0.0 | 4.0 | 0.00 | 0.00 | 0.00 | 80 | 1015.6 |
| 20260505160205 | 57 | 278 | 0.0 | 3.0 | 0.00 | 0.00 | 0.00 | 81 | 1015.6 |
| 20260505152202 | 56 | 274 | 4.0 | 5.0 | 0.00 | 0.00 | 0.00 | 82 | 1015.5 |
| 20260505151200 | 56 | 262 | 1.0 | 4.0 | 0.00 | 0.00 | 0.00 | 83 | 1015.5 |
| 20260505130147 | 54 | 327 | 1.0 | 4.0 | 0.00 | 0.00 | 0.00 | 84 | 1014.9 |
| 20260505124146 | 54 | 291 | 5.0 | 7.0 | 0.00 | 0.00 | 0.00 | 84 | 1014.7 |
| 20260505123144 | 54 | 317 | 3.0 | 7.0 | 0.00 | 0.00 | 0.00 | 84 | 1014.5 |
| 20260505115141 | 54 | 313 | 0.0 | 6.0 | 0.00 | 0.00 | 0.00 | 85 | 1014.4 |
| 20260505114140 | 54 | 327 | 2.0 | 4.0 | 0.00 | 0.00 | 0.00 | 85 | 1014.4 |
| 20260505113138 | 54 | 324 | 2.0 | 5.0 | 0.00 | 0.00 | 0.00 | 86 | 1014.5 |
| 20260505112137 | 54 | 323 | 2.0 | 2.0 | 0.00 | 0.00 | 0.00 | 86 | 1014.4 |
| 20260505111136 | 54 | 323 | 0.0 | 0.0 | 0.00 | 0.00 | 0.00 | 86 | 1014.5 |
| 20260505102131 | 54 | 323 | 0.0 | 0.0 | 0.00 | 0.00 | 0.00 | 87 | 1014.2 |
| 20260505101130 | 54 | 323 | 0.0 | 5.0 | 0.00 | 0.00 | 0.00 | 87 | 1014.1 |
| 20260505100130 | 54 | 319 | 0.0 | 5.0 | 0.00 | 0.00 | 0.00 | 87 | 1014.2 |
| 20260505095130 | 54 | 298 | 2.0 | 8.0 | 0.00 | 0.00 | 0.00 | 86 | 1014.2 |
| 20260505093127 | 54 | 320 | 2.0 | 9.0 | 0.00 | 0.00 | 0.00 | 86 | 1014.1 |
| 20260505092127 | 54 | 281 | 2.0 | 5.0 | 0.00 | 0.00 | 0.00 | 86 | 1014.1 |
| 20260505090123 | 54 | 314 | 3.0 | 6.0 | 0.00 | 0.00 | 0.00 | 86 | 1014.1 |
| 20260505085123 | 54 | 307 | 1.0 | 7.0 | 0.00 | 0.00 | 0.00 | 85 | 1014.1 |
| 20260505084122 | 54 | 283 | 2.0 | 5.0 | 0.00 | 0.00 | 0.00 | 85 | 1014.1 |
| 20260505083120 | 54 | 287 | 0.0 | 4.0 | 0.00 | 0.00 | 0.00 | 85 | 1014.1 |
| 20260505081119 | 54 | 293 | 3.0 | 7.0 | 0.00 | 0.00 | 0.00 | 85 | 1014.2 |
| 20260505080118 | 54 | 317 | 6.0 | 8.0 | 0.00 | 0.00 | 0.00 | 85 | 1014.2 |
| 20260505075118 | 55 | 283 | 2.0 | 7.0 | 0.00 | 0.00 | 0.00 | 85 | 1014.2 |
| 20260505073114 | 55 | 320 | 4.0 | 7.0 | 0.00 | 0.00 | 0.00 | 85 | 1014.3 |
| 20260505072115 | 55 | 296 | 2.0 | 11.0 | 0.00 | 0.00 | 0.00 | 84 | 1014.2 |
| 20260505070112 | 55 | 305 | 3.0 | 8.0 | 0.00 | 0.00 | 0.00 | 84 | 1014.0 |
| 20260505062109 | 55 | 318 | 6.0 | 8.0 | 0.00 | 0.00 | 0.00 | 84 | 1013.9 |
| 20260505060106 | 55 | 308 | 8.0 | 10.0 | 0.00 | 0.00 | 0.00 | 83 | 1014.0 |
| 20260505055105 | 55 | 286 | 4.0 | 9.0 | 0.00 | 0.00 | 0.00 | 83 | 1013.9 |
| 20260505053103 | 55 | 298 | 3.0 | 12.0 | 0.00 | 0.00 | 0.00 | 83 | 1013.9 |
| 20260505051101 | 55 | 287 | 7.0 | 11.0 | 0.00 | 0.00 | 0.00 | 83 | 1013.8 |
| 20260505040054 | 56 | 279 | 4.0 | 11.0 | 0.00 | 0.00 | 0.00 | 83 | 1013.0 |
| 20260505035054 | 56 | 304 | 6.0 | 9.0 | 0.00 | 0.00 | 0.00 | 82 | 1012.9 |
| 20260505034052 | 56 | 302 | 3.0 | 10.0 | 0.00 | 0.00 | 0.00 | 82 | 1012.8 |
| 20260505033052 | 57 | 275 | 4.0 | 12.0 | 0.00 | 0.00 | 0.00 | 81 | 1012.7 |
| 20260505031050 | 58 | 319 | 4.0 | 11.0 | 0.00 | 0.00 | 0.00 | 79 | 1012.3 |
| 20260505030049 | 58 | 283 | 5.0 | 13.0 | 0.00 | 0.00 | 0.00 | 78 | 1012.2 |
| 20260505025047 | 59 | 295 | 3.0 | 12.0 | 0.00 | 0.00 | 0.00 | 77 | 1012.0 |
| 20260505023046 | 60 | 267 | 3.0 | 12.0 | 0.00 | 0.00 | 0.00 | 76 | 1011.7 |
| 20260505022045 | 61 | 270 | 8.0 | 14.0 | 0.00 | 0.00 | 0.00 | 74 | 1011.6 |
| 20260505021043 | 62 | 260 | 4.0 | 14.0 | 0.00 | 0.00 | 0.00 | 74 | 1011.6 |
| 20260505020043 | 62 | 310 | 9.0 | 13.0 | 0.00 | 0.00 | 0.00 | 74 | 1011.6 |
| 20260505015041 | 62 | 309 | 4.0 | 15.0 | 0.00 | 0.00 | 0.00 | 73 | 1011.6 |
| 20260505014040 | 63 | 297 | 9.0 | 14.0 | 0.00 | 0.00 | 0.00 | 74 | 1011.6 |
| 20260505013039 | 63 | 275 | 9.0 | 14.0 | 0.00 | 0.00 | 0.00 | 73 | 1011.6 |
| 20260505012039 | 63 | 308 | 10.0 | 15.0 | 0.00 | 0.00 | 0.00 | 72 | 1011.6 |
| 20260505011037 | 64 | 316 | 8.0 | 15.0 | 0.00 | 0.00 | 0.00 | 72 | 1011.6 |
| 20260505010037 | 64 | 313 | 10.0 | 18.0 | 0.00 | 0.00 | 0.00 | 72 | 1011.6 |
| 20260505005035 | 65 | 306 | 9.0 | 17.0 | 0.00 | 0.00 | 0.00 | 70 | 1011.7 |
| 20260505004035 | 66 | 328 | 8.0 | 15.0 | 0.00 | 0.00 | 0.00 | 68 | 1011.7 |
| 20260505003035 | 66 | 298 | 7.0 | 17.0 | 0.00 | 0.00 | 0.00 | 68 | 1011.6 |
| 20260505002033 | 68 | 331 | 7.0 | 14.0 | 0.00 | 0.00 | 0.00 | 67 | 1011.6 |
| 20260505001031 | 68 | 298 | 11.0 | 15.0 | 0.00 | 0.00 | 0.00 | 66 | 1011.6 |
| 20260505000030 | 69 | 322 | 9.0 | 14.0 | 0.00 | 0.00 | 0.00 | 66 | 1011.6 |
| 20260504235029 | 69 | 319 | 3.0 | 12.0 | 0.00 | 0.00 | 0.00 | 65 | 1011.7 |
| 20260504234029 | 68 | 296 | 10.0 | 12.0 | 0.00 | 0.00 | 0.00 | 68 | 1011.7 |
| 20260504232028 | 68 | 287 | 8.0 | 15.0 | 0.00 | 0.00 | 0.00 | 67 | 1011.8 |
| 20260504225024 | 69 | 285 | 12.0 | 15.0 | 0.00 | 0.00 | 0.00 | 65 | 1012.1 |
| 20260504224022 | 69 | 310 | 7.0 | 14.0 | 0.00 | 0.00 | 0.00 | 67 | 1012.2 |
| 20260504222021 | 69 | 310 | 3.0 | 14.0 | 0.00 | 0.00 | 0.00 | 68 | 1012.5 |
| 20260504220019 | 69 | 306 | 7.0 | 13.0 | 0.00 | 0.00 | 0.00 | 69 | 1012.6 |
| 20260504214017 | 68 | 328 | 7.0 | 11.0 | 0.00 | 0.00 | 0.00 | 68 | 1012.7 |
| 20260504213016 | 66 | 322 | 9.0 | 11.0 | 0.00 | 0.00 | 0.00 | 69 | 1012.8 |
| 20260504211015 | 66 | 264 | 4.0 | 8.0 | 0.00 | 0.00 | 0.00 | 68 | 1012.8 |